Welcome to the New NWS' Forecast!
Most changes are behind the scenes, but click here for differences you might notice.

Regional Weather Roundup (RWR)

Issued by Gray - Portland, ME (GYX)

                            
797 
ASUS41 KGYX 231705
RWRGYX
WEATHER ROUNDUP FOR MAINE AND NEW HAMPSHIRE
NATIONAL WEATHER SERVICE GRAY ME
1200 PM EST TUE JAN 23 2018

MEZ002-005-006-010-012-015-018-020-021-024-026-027-029-231800-
MAINE
  
CITY           SKY/WX    TMP DP  RH WIND       PRES   REMARKS
PORTLAND       FRZ RAIN  29  28  96 NE8       29.74F FOG              
SANFORD        LGT SNOW  31  30  96 NE6       29.72F FOG              
BAR HARBOR     CLOUDY    47  46  97 S25G31    29.78F FOG              
WISCASSET      FRZ RAIN  29  29 100 VRB3      29.78F FOG              
ROCKLAND       LGT RAIN  44  44 100 S6        29.77F VSB 3/4          
FRYEBURG       FRZ RAIN  30  30 100 VRB5      29.73F FOG              
AUGUSTA        FRZ RAIN  26  24  92 N8        29.76F VSB 3/4          
WATERVILLE     LGT SNOW  25  23  92 N8        29.74F FOG              
BANGOR         DRIZZLE   33  32  96 CALM      29.78F FOG              
GREENVILLE       N/A     26  26 100 VRB6      29.71F                  
MILLINOCKET    FRZ RAIN  19  18  95 CALM      29.86F VSB 1            
HOULTON        FRZ RAIN  20  17  88 VRB6      29.86F FOG              
PRESQUE ISLE   MIX PCPN  17  15  92 N5        29.89F FOG              
FRENCHVILLE    LGT SNOW  11   8  88 E13G21    29.86F VSB 1   WCI  -4  
CARIBOU        MIX PCPN  18  14  84 E8        29.87F VSB 1            
$$

NHZ002-005-008-009-011-012-014-231800-
NEW HAMPSHIRE
  
CITY           SKY/WX    TMP DP  RH WIND       PRES   REMARKS
PORTSMOUTH     FRZ RAIN  31  30  97 VRB6      29.72F FOG              
ROCHESTER      FRZ RAIN  31  31 100 VRB5      29.71F FOG              
NASHUA         LGT RAIN  30  30 100 CALM      29.71F FOG              
MANCHESTER     FRZ RAIN  31  29  92 CALM      29.71F FOG              
CONCORD        FRZ RAIN  31  29  92 CALM      29.70F FOG              
LACONIA        LGT SNOW  32  30  92 NE6       29.72S FOG              
PLYMOUTH       LGT SNOW  32  32  99 CALM      29.72F                  
BERLIN         FRZ RAIN  33  32  96 NW6       29.66F FOG              
WHITEFIELD     LGT RAIN  37  37 100 W6        29.61F FOG              
JAFFREY        RAIN      34  34 100 N6        29.65F FOG              
KEENE          LGT RAIN  34  32  93 CALM      29.65F FOG              
LEBANON        LGT RAIN  34  32  92 NE6       29.66F                  
MT WASHINGTON  RAIN      34  34 100 S41G49      N/A  VSB 0   WCI  18  
$$

VTZ005-007-008-231800-
VERMONT
  
CITY           SKY/WX    TMP DP  RH WIND       PRES   REMARKS
ST JOHNSBURY     N/A     33  33 100 MISG      29.63F                  
MONTPELIER     RAIN      35  34  96 S8        29.65F FOG              
BURLINGTON     LGT RAIN  41  39  93 SE10      29.57F                  
$$

MAZ007-012-024-CTZ003-RIZ002-NYZ038-NYZ072-231800-
SOUTHERN NEW ENGLAND AND NY
  
CITY           SKY/WX    TMP DP  RH WIND       PRES   REMARKS
BOSTON         HVY RAIN  36  35  96 W6        29.72F VSB 1/2          
WORCESTER      MIX PCPN  32  31  96 NE5       29.65F VSB 1/4          
NANTUCKET      LGT RAIN  48  48 100 S21       29.78F VSB 3/4          
PROVIDENCE     RAIN      54  54 100 S15G26    29.68F FOG              
HARTFORD       LGT RAIN  37  36  96 N5        29.62F                  
ALBANY         LGT RAIN  44  42  93 CALM      29.58F FOG              
NEW YORK CITY  LGT RAIN  53  51  93 S16G25    29.56F                  
$$

ANZ081-ANZ082-ANZ150-NHZ014-MEZ023>029-231800-
COASTAL MARINE OBSERVATIONS
  
STATION/POSITION TIME  TEMP    WIND        PRES    WAVE
                       AIR SEA DIR/SP/G            HT/PER
                 (UTC) (F)     (DEG/KT/KT) (MB)    (FT/S)
MOUNT DESERT ROC 1700   49     150/ 34/ 37 1009.0F
MATINICUS ROCK   1600   48     160/ 32/ 35 1008.8F
ISLE OF SHOALS   1600   31      20/  2/  2 1008.1F
JEFFREYS LEDGE   1606      43                N/A     6/ 7
GEORGES BANK BUO 1550   51 55              1023.7    6/ 6
$$

.............KEY..............
   WCI - WIND CHILL
   TC  - TEMPERATURE IN CELSIUS
   VSB - VISIBILITY IN MILES
   HX  - HEAT INDEX
   FAIR- INDICATES FEW OR NO CLOUDS BELOW 12,000 FT, WITH NO 
         SIGNIFICANT WEATHER AND/OR OBSTRUCTIONS TO VISIBILITY.